Home > Weather > Zarqa > Past weeks

Flag for Jordan Weather for the Past 2 Weeks in Zarqa, Jordan

Now
66 °F

Clear.


Feels Like: 66 °F
Forecast: 46 / 72 °F
Wind: 6 mph from Northwest

Location: Amman Airport

Current Time: Feb 14, 2016 at 12:29:06 PM

Latest Report: Feb 14, 2016 at 12:00 PM


Visibility: 4 mi

Pressure: 30.15 "Hg (28.06 "Hg at 615m altitude)

Humidity: 26%

Dew point: 30 °F

Location of ZarqaLocation

Historic Weather in Zarqa — Graph

°F

Zarqa Temperature Yesterday

Maximum temperature yesterday: 68 °F (at 2:00 PM)
Minimum temperature yesterday: 43 °F (at 6:00 AM)
Average temperature yesterday: 54 °F

High & Low Weather Summary for the Past Weeks

 TemperatureHumidityPressure
High68 °F (Feb 13, 2:00 PM)100% (Feb 7, 6:00 AM)30.39 "Hg (Feb 7, 6:00 AM)
Low34 °F (Jan 31, 6:00 AM)16% (Feb 1, 3:00 PM)29.89 "Hg (Feb 7, 4:00 AM)
Average49 °F62%30.17 "Hg
* Reported Jan 30 11:00 AM — Feb 14 11:00 AM, Zarqa, Weather by CustomWeather, © 2016

Note: Actual official high and low records may vary slightly from our data, if they occured in-between our weather recording intervals... More about our weather records

Advertising

Zarqa Weather History for the Previous 24 Hours

 ConditionsComfort  
Time TempWeatherWind HumidityBarometerVisibility
11:00 AM
Sun, Feb 14
64 °FClear.5 mph32%30.15 "Hg4 mi
10:00 AM63 °FHaze.3 mph39%30.15 "Hg3 mi
9:00 AM59 °FHaze.No wind39%30.18 "Hg2 mi
8:00 AM52 °FClear.No wind67%30.15 "Hg1 mi
7:00 AM48 °FHaze.No wind71%30.12 "Hg2 mi
6:00 AM48 °FHaze.No wind66%30.12 "Hg2 mi
5:00 AM48 °FHaze.5 mph71%30.12 "Hg3 mi
4:00 AM48 °FHaze.No wind71%30.12 "Hg3 mi
3:00 AM50 °FHaze.No wind67%30.12 "Hg3 mi
2:00 AM50 °FHaze.No wind62%30.12 "Hg2 mi
1:00 AM54 °FHaze.5 mph58%30.12 "Hg2 mi
12:00 AM54 °FHaze.5 mph58%30.12 "Hg2 mi
11:00 PM
Sat, Feb 13
55 °FHaze.5 mph55%30.12 "Hg2 mi
10:00 PM55 °FHaze.No wind55%30.12 "Hg2 mi
9:00 PM55 °FHaze.No wind55%30.12 "Hg2 mi
8:00 PM55 °FHaze.No wind55%30.12 "Hg2 mi
7:00 PM57 °FHaze.No wind51%30.12 "Hg2 mi
6:00 PM59 °FHaze.No wind42%30.12 "Hg2 mi
5:00 PM63 °FHaze.No wind37%30.12 "Hg2 mi
4:00 PM66 °FHaze.5 mph35%30.09 "Hg2 mi
3:00 PM68 °FHaze.No wind28%30.09 "Hg3 mi
2:00 PM68 °FHaze.3 mph28%30.09 "Hg3 mi
1:00 PM66 °FHaze.3 mph24%30.12 "Hg3 mi
12:00 PM63 °FHaze.5 mph30%30.18 "Hg3 mi
Weather by CustomWeather, © 2016

See weather overviewHow to use our weather pages